[[{"header":{"parameterUnit":"m.s-1","parameterCategory":2,"la1":30.2991,"la2":30.254,"lo1":-89.0895,"lo2":-89.0444,"dy":0.0017,"dx":0.0017,"nx":28,"ny":28,"refTime":"2025-04-16T09:00:00:Z","depth":"0","parameterNumber":2,"parameterNumberName":"U-component_of_CURRENTS"},"data":[0,0,0,0,0,0,0,0,0,0,0,0,0,0,0,0,0,0,0,0,0,0,0,0,0,0,0,0,0,0,0,0,0,0,0,0,0,0,0,0,0,0,0,0,0,0,0,0,0,0,0,0,0,0,0,0,0,0,-0.3058,-0.3058,0,-0.3097,-0.3097,-0.3098,-0.3104,-0.3104,-0.3104,-0.3104,-0.3163,-0.3165,-0.3166,0,0,0,0,0,0,0,0,0,0,0,0,0,-0.2967,-0.2968,-0.3058,-0.3058,-0.3059,-0.3097,-0.3097,-0.3098,-0.3104,-0.3104,-0.3104,-0.3104,-0.3162,-0.3164,-0.3167,0,0,0,0,0,0,0,0,0,0,0,0,0,-0.3004,-0.2969,-0.3057,-0.3068,-0.307,-0.3097,-0.3097,-0.3098,-0.3104,-0.3104,-0.3104,-0.3103,-0.3162,-0.3164,-0.3167,-0.3187,0,0,-0.3175,-0.3176,0,0,0,0,0,0,0,0,-0.3002,-0.3007,-0.3066,-0.3068,-0.3069,-0.3097,-0.3087,-0.3129,-0.3104,-0.3089,-0.3104,-0.3103,-0.3145,-0.3148,-0.3153,-0.319,-0.3192,-0.3175,-0.3176,-0.3178,-0.3178,0,0,0,0,0,0,0,-0.2999,-0.3005,-0.3071,-0.3067,-0.3069,-0.3064,-0.3069,-0.3095,-0.3116,-0.309,-0.3091,-0.3099,-0.3145,-0.315,-0.3155,-0.3193,-0.3175,-0.3177,-0.3179,-0.318,-0.3171,-0.3169,0,0,0,0,0,0,-0.3001,-0.3003,-0.307,-0.3072,-0.3037,-0.3066,-0.3072,-0.3087,-0.3115,-0.312,-0.3099,-0.3099,-0.3146,-0.3152,-0.3157,-0.3154,-0.3178,-0.318,-0.3181,-0.3173,-0.3171,-0.3169,0,0,0,0,0,0,-0.2999,-0.3006,-0.3068,-0.304,-0.3048,-0.3068,-0.3085,-0.3088,-0.3095,-0.3123,-0.3127,-0.3104,-0.3146,-0.3153,-0.3161,-0.3158,-0.3181,-0.3183,-0.3175,-0.3172,-0.317,-0.3168,0,0,0,0,0,0,-0.2996,-0.3006,-0.3013,-0.304,-0.3049,-0.3085,-0.3086,-0.3089,-0.3101,-0.3101,-0.3128,-0.3133,-0.3147,-0.3157,-0.3163,-0.3162,-0.3186,-0.3177,-0.3174,-0.317,-0.317,-0.3165,-0.3161,0,0,0,0,0,-0.2993,-0.3007,-0.3013,-0.3021,-0.306,-0.3086,-0.309,-0.3102,-0.3101,-0.3106,-0.3108,-0.3132,-0.3139,-0.3158,-0.3166,-0.3165,-0.3179,-0.3175,-0.3171,-0.3172,-0.3166,-0.3161,0,0,0,0,0,0,-0.2976,-0.3011,-0.3017,-0.3043,-0.3062,-0.3088,-0.3094,-0.3103,-0.3109,-0.3107,-0.3126,-0.3131,-0.3131,-0.314,-0.316,-0.3144,-0.3157,-0.3155,-0.3155,-0.315,-0.3146,-0.3149,-0.3188,0,0,0,0,0,-0.2976,-0.299,-0.3023,-0.304,-0.3051,-0.3071,-0.3082,-0.3093,-0.3105,-0.3108,-0.3121,-0.3122,-0.312,-0.313,-0.3131,-0.3141,-0.3133,-0.3135,-0.3131,-0.3127,-0.313,-0.3102,-0.3096,-0.3155,-0.3156,-0.3156,0,0,-0.2972,-0.2993,-0.3,-0.3036,-0.305,-0.3068,-0.3076,-0.3095,-0.3103,-0.3115,-0.312,-0.3115,-0.3115,-0.3112,-0.3113,-0.3124,-0.3102,-0.3122,-0.312,-0.3125,-0.3097,-0.3092,-0.3087,-0.3153,-0.3153,-0.3154,0,0,-0.297,-0.2993,-0.3002,-0.3022,-0.3048,-0.3063,-0.307,-0.3094,-0.3097,-0.3106,-0.3099,-0.3085,-0.3102,-0.309,-0.3089,-0.306,-0.3076,-0.3059,-0.3055,-0.3028,-0.3024,-0.302,-0.2995,-0.2989,-0.3063,-0.3063,-0.3063,0,-0.2963,-0.2984,-0.3008,-0.3025,-0.3039,-0.3061,-0.3075,-0.3086,-0.3105,-0.3105,-0.3104,-0.3087,-0.3088,-0.3073,-0.3054,-0.3055,-0.3044,-0.3085,-0.3025,-0.3022,-0.3018,-0.2994,-0.2987,-0.3062,-0.3062,-0.3062,-0.3062,0,-0.2968,-0.2987,-0.2995,-0.3021,-0.3041,-0.3056,-0.3081,-0.309,-0.3095,-0.31,-0.3086,-0.3071,-0.3062,-0.305,-0.305,-0.3019,-0.3021,-0.3023,-0.3049,-0.3012,-0.2988,-0.2982,-0.3061,-0.3061,-0.3062,-0.3062,0,0,-0.2936,-0.2987,-0.2986,-0.3001,-0.3039,-0.3056,-0.3073,-0.309,-0.3097,-0.3093,-0.3091,-0.3061,-0.3052,-0.3045,-0.3033,-0.3008,-0.2964,-0.3007,-0.3006,-0.3,-0.2907,-0.2797,-0.278,-0.2963,-0.2962,-0.2961,-0.2899,0,-0.2925,-0.2952,-0.2982,-0.3003,-0.302,-0.3054,-0.307,-0.309,-0.3098,-0.3102,-0.3078,-0.3069,-0.3052,-0.3044,-0.3013,-0.2988,-0.2947,-0.2981,-0.2927,-0.2926,-0.2847,-0.2768,-0.2664,-0.259,-0.2893,-0.2892,-0.2891,0,-0.2903,-0.293,-0.2949,-0.2999,-0.301,-0.3026,-0.3056,-0.3076,-0.3093,-0.31,-0.3088,-0.3081,-0.3049,-0.3031,-0.2964,-0.2992,-0.294,-0.291,-0.2907,-0.2803,-0.2803,-0.2673,-0.2567,-0.2538,-0.2881,-0.2882,-0.2882,0,-0.2847,-0.2899,-0.2911,-0.2928,-0.299,-0.3002,-0.3032,-0.3064,-0.3079,-0.3094,-0.3103,-0.3076,-0.306,-0.3004,-0.2938,-0.2957,-0.2855,-0.2876,-0.2722,-0.2715,-0.2612,-0.2596,-0.2484,-0.2796,-0.2796,-0.2797,-0.2797,0,-0.281,-0.2817,-0.2887,-0.2893,-0.2913,-0.2972,-0.2988,-0.3019,-0.3058,-0.3067,-0.309,-0.308,-0.3051,-0.2997,-0.2936,-0.2797,-0.2847,-0.2697,-0.2677,-0.2604,-0.2589,-0.2549,-0.2581,-0.2794,-0.2795,-0.2795,-0.2796,0,-0.2728,-0.2775,-0.2796,-0.2864,-0.2883,-0.2894,-0.296,-0.2973,-0.3028,-0.3042,-0.3048,-0.3075,-0.3,-0.2941,-0.2849,-0.2776,-0.2608,-0.2599,-0.2512,-0.2481,-0.2305,-0.2341,-0.2217,-0.2154,-0.2428,-0.2425,-0.2422,0,-0.268,-0.2683,-0.2753,-0.2763,-0.2787,-0.2823,-0.2845,-0.293,-0.2953,-0.3023,-0.3018,-0.2983,-0.2904,-0.2738,-0.2607,-0.2452,-0.2458,-0.228,-0.2276,-0.2248,-0.2276,-0.2315,-0.2277,-0.2149,-0.2144,-0.2141,-0.2137,0,-0.2583,-0.261,-0.2628,-0.2657,-0.2681,-0.2714,-0.2759,-0.278,-0.2876,-0.2887,-0.2879,-0.2826,-0.2688,-0.248,-0.2297,-0.2202,-0.2223,-0.2191,-0.2185,-0.2046,-0.206,-0.2007,-0.2259,-0.2102,-0.2106,-0.2108,-0.211,-0.2112,-0.2489,-0.2483,-0.251,-0.252,-0.2554,-0.2568,-0.2546,-0.2609,-0.2614,-0.2599,-0.2666,-0.2537,-0.2402,-0.2116,-0.2015,-0.1832,-0.1927,-0.1783,-0.1831,-0.1875,-0.1792,-0.1952,-0.1758,-0.1759,-0.1761,-0.1762,-0.1763,0,-0.2352,-0.2359,-0.237,-0.2377,-0.2352,-0.242,-0.2449,-0.2397,-0.2344,-0.2355,-0.2296,-0.2142,-0.1923,-0.1816,-0.1626,-0.1519,-0.1506,-0.1492,-0.1548,-0.1526,-0.167,-0.1633,-0.1373,-0.1373,-0.1373,-0.1373,-0.1373,-0.1373,-0.2278,-0.2233,-0.2243,-0.2154,-0.2158,-0.2073,-0.2053,-0.2,-0.197,-0.1832,-0.1762,-0.1752,-0.1668,-0.1661,-0.1477,-0.139,-0.1374,-0.1318,-0.1359,-0.15,-0.1533,-0.1564,-0.1533,-0.1257,-0.1257,-0.116,-0.1159,-0.1159]},{"header":{"parameterUnit":"m.s-1","parameterCategory":2,"la1":30.2991,"la2":30.254,"lo1":-89.0895,"lo2":-89.0444,"dy":0.0017,"dx":0.0017,"nx":28,"ny":28,"refTime":"2025-04-16T09:00:00:Z","depth":"0","parameterNumber":3,"parameterNumberName":"V-component_of_CURRENTS"},"data":[0,0,0,0,0,0,0,0,0,0,0,0,0,0,0,0,0,0,0,0,0,0,0,0,0,0,0,0,0,0,0,0,0,0,0,0,0,0,0,0,0,0,0,0,0,0,0,0,0,0,0,0,0,0,0,0,0,0,-0.0523,-0.0522,0,-0.0447,-0.0446,-0.0445,-0.039,-0.039,-0.0389,-0.0389,-0.0232,-0.0228,-0.0225,0,0,0,0,0,0,0,0,0,0,0,0,0,-0.0558,-0.0558,-0.0523,-0.0522,-0.0521,-0.0447,-0.0446,-0.0445,-0.039,-0.039,-0.0389,-0.0389,-0.0233,-0.0229,-0.0224,0,0,0,0,0,0,0,0,0,0,0,0,0,-0.0518,-0.0558,-0.0523,-0.0485,-0.0481,-0.0447,-0.0446,-0.0445,-0.039,-0.039,-0.0389,-0.0389,-0.0235,-0.0229,-0.0224,-0.0201,0,0,-0.0206,-0.0204,0,0,0,0,0,0,0,0,-0.0521,-0.0517,-0.0492,-0.0488,-0.0483,-0.0428,-0.0401,-0.0359,-0.039,-0.0424,-0.0389,-0.0388,-0.0291,-0.0281,-0.0268,-0.0193,-0.0186,-0.0206,-0.0202,-0.02,-0.0198,0,0,0,0,0,0,0,-0.0524,-0.052,-0.0492,-0.0491,-0.0486,-0.0451,-0.0445,-0.0393,-0.036,-0.0421,-0.0417,-0.041,-0.0288,-0.0274,-0.0264,-0.0184,-0.0206,-0.0201,-0.0197,-0.0195,-0.0074,-0.0074,0,0,0,0,0,0,-0.0538,-0.0523,-0.0494,-0.049,-0.0502,-0.0451,-0.0445,-0.0446,-0.0362,-0.0349,-0.0411,-0.0408,-0.0284,-0.027,-0.0258,-0.0227,-0.02,-0.0194,-0.0191,-0.0073,-0.0074,-0.0074,0,0,0,0,0,0,-0.054,-0.0537,-0.0497,-0.0504,-0.0497,-0.0452,-0.0453,-0.0445,-0.043,-0.0355,-0.0341,-0.0405,-0.0283,-0.0266,-0.0223,-0.022,-0.0192,-0.0187,-0.0073,-0.0073,-0.0074,-0.0163,0,0,0,0,0,0,-0.0541,-0.0538,-0.0543,-0.0506,-0.0497,-0.0484,-0.0453,-0.0444,-0.0427,-0.0422,-0.0345,-0.033,-0.0281,-0.0232,-0.0217,-0.0211,-0.0182,-0.0073,-0.0073,-0.0074,-0.016,-0.0166,-0.0172,0,0,0,0,0,-0.0543,-0.0555,-0.0544,-0.0541,-0.0507,-0.0484,-0.0477,-0.0441,-0.0427,-0.0425,-0.038,-0.0333,-0.0223,-0.0228,-0.0211,-0.0203,-0.0073,-0.0073,-0.0074,-0.0157,-0.0165,-0.0172,0,0,0,0,0,0,-0.057,-0.0549,-0.0537,-0.0541,-0.0517,-0.0475,-0.047,-0.0448,-0.0412,-0.0407,-0.0338,-0.032,-0.0281,-0.0232,-0.0239,-0.0169,-0.0138,-0.0136,-0.0208,-0.0214,-0.022,-0.0235,-0.0178,0,0,0,0,0,-0.0581,-0.0586,-0.0556,-0.0559,-0.0551,-0.0513,-0.0499,-0.0478,-0.0441,-0.0425,-0.0373,-0.0316,-0.0269,-0.0237,-0.0188,-0.015,-0.0095,-0.0132,-0.0138,-0.0143,-0.0144,-0.008,-0.0081,-0.0075,-0.0075,-0.0075,0,0,-0.0592,-0.0581,-0.0583,-0.0565,-0.0544,-0.0544,-0.0503,-0.049,-0.0485,-0.0412,-0.0389,-0.0337,-0.0266,-0.0229,-0.0205,-0.0186,-0.0114,-0.0144,-0.0149,-0.0146,-0.0081,-0.0081,-0.0082,-0.0076,-0.0076,-0.0075,0,0,-0.0624,-0.0608,-0.0627,-0.0614,-0.0592,-0.0567,-0.0568,-0.0531,-0.0509,-0.0483,-0.0431,-0.0384,-0.0309,-0.0261,-0.0225,-0.0233,-0.0154,-0.0212,-0.0246,-0.0185,-0.0185,-0.0184,-0.011,-0.0102,-0.0209,-0.0209,-0.0209,0,-0.0638,-0.0659,-0.0626,-0.0641,-0.0637,-0.0585,-0.0602,-0.0573,-0.0526,-0.0506,-0.0486,-0.0381,-0.0325,-0.0272,-0.0277,-0.0246,-0.0194,-0.0227,-0.0194,-0.0192,-0.0189,-0.0113,-0.0104,-0.0213,-0.0213,-0.0212,-0.0212,0,-0.0686,-0.07,-0.0709,-0.0713,-0.07,-0.0705,-0.0666,-0.0647,-0.0613,-0.0574,-0.052,-0.0446,-0.0381,-0.0355,-0.0317,-0.0272,-0.0234,-0.0216,-0.018,-0.0196,-0.0114,-0.0102,-0.022,-0.0218,-0.0217,-0.0216,0,0,-0.0725,-0.0742,-0.0746,-0.0764,-0.0741,-0.0738,-0.0728,-0.0698,-0.0682,-0.0624,-0.0593,-0.0517,-0.0466,-0.0424,-0.0363,-0.0307,-0.0248,-0.0261,-0.0255,-0.0195,-0.0099,-0.0038,-0.0018,-0.0225,-0.0224,-0.0223,-0.0046,0,-0.0774,-0.083,-0.0814,-0.0852,-0.0877,-0.0828,-0.082,-0.0781,-0.0727,-0.0679,-0.0591,-0.0536,-0.0494,-0.0458,-0.04,-0.0279,-0.0221,-0.0296,-0.0085,-0.0078,-0.0029,-0.0004,0.0019,0.0181,-0.0034,-0.0032,-0.003,0,-0.083,-0.086,-0.0917,-0.0931,-0.0934,-0.094,-0.091,-0.0893,-0.0806,-0.076,-0.0686,-0.0607,-0.051,-0.0478,-0.029,-0.0339,-0.0234,-0.0143,-0.0134,-0.0037,0.0005,0.0163,0.0212,0.0342,-0.0011,-0.0013,-0.0014,0,-0.0888,-0.0929,-0.0979,-0.0987,-0.099,-0.0996,-0.0985,-0.092,-0.0894,-0.0803,-0.076,-0.064,-0.0554,-0.0427,-0.0235,-0.0263,-0.0014,-0.0026,0.0129,0.0136,0.0218,0.0229,0.0412,0.0094,0.0094,0.0093,0.0093,0,-0.0954,-0.0991,-0.1013,-0.1043,-0.1085,-0.1057,-0.1065,-0.103,-0.0958,-0.091,-0.0806,-0.072,-0.0537,-0.0369,-0.023,0.0009,-0.0004,0.0138,0.0188,0.0189,0.0195,0.0363,0.0406,0.01,0.0098,0.0097,0.0096,0,-0.1014,-0.1031,-0.109,-0.1113,-0.112,-0.1148,-0.1131,-0.1121,-0.1046,-0.0976,-0.0947,-0.0755,-0.0526,-0.0327,-0.0072,0.0041,0.0339,0.0324,0.0324,0.0369,0.0598,0.0634,0.0883,0.0967,0.0508,0.051,0.0512,0,-0.105,-0.1092,-0.1148,-0.1183,-0.1198,-0.1224,-0.1232,-0.1177,-0.1147,-0.098,-0.0939,-0.0704,-0.0507,-0.0104,0.0135,0.0406,0.0492,0.0574,0.0513,0.0635,0.0712,0.0731,0.0784,0.0597,0.06,0.0602,0.0604,0,-0.1113,-0.1134,-0.1181,-0.1258,-0.129,-0.1316,-0.1313,-0.13,-0.1199,-0.1096,-0.0894,-0.0719,-0.0324,0.002,0.0363,0.0514,0.067,0.0627,0.0758,0.0806,0.0838,0.0934,0.0464,0.0623,0.0621,0.062,0.0619,0.0618,-0.1144,-0.1197,-0.1258,-0.1325,-0.1364,-0.1383,-0.1379,-0.1321,-0.1234,-0.1038,-0.087,-0.0554,-0.0106,0.0392,0.0567,0.0908,0.0862,0.0988,0.1028,0.1042,0.1104,0.0683,0.0888,0.0887,0.0887,0.0887,0.0886,0,-0.1175,-0.1237,-0.1314,-0.1385,-0.1426,-0.143,-0.1407,-0.1343,-0.1204,-0.0988,-0.0753,-0.0201,0.0236,0.0626,0.1094,0.1283,0.1307,0.1381,0.1406,0.1443,0.1088,0.107,0.1318,0.1318,0.1317,0.1317,0.1317,0.1317,-0.1194,-0.1277,-0.1324,-0.1408,-0.145,-0.1455,-0.1427,-0.1282,-0.111,-0.0716,-0.0371,-0.0097,0.0464,0.1171,0.1594,0.1636,0.1787,0.1789,0.1877,0.1608,0.1573,0.154,0.1535,0.1876,0.1877,0.221,0.2213,0.2216]}],[{"header":{"parameterUnit":"m.s-1","parameterCategory":2,"la1":30.2991,"la2":30.254,"lo1":-89.0895,"lo2":-89.0444,"dy":0.0017,"dx":0.0017,"nx":28,"ny":28,"refTime":"2025-04-16T09:00:00:Z","depth":"2","parameterNumber":2,"parameterNumberName":"U-component_of_CURRENTS"},"data":[0,0,0,0,0,0,0,0,0,0,0,0,0,0,0,0,0,0,0,0,0,0,0,0,0,0,0,0,0,0,0,0,0,0,0,0,0,0,0,0,0,0,0,0,0,0,0,0,0,0,0,0,0,0,0,0,0,0,-0.2637,-0.2638,0,-0.2676,-0.2676,-0.2676,-0.2692,-0.2692,-0.2692,-0.2692,-0.2744,-0.2745,-0.2746,0,0,0,0,0,0,0,0,0,0,0,0,0,-0.2565,-0.2566,-0.2637,-0.2638,-0.2638,-0.2676,-0.2676,-0.2676,-0.2692,-0.2692,-0.2692,-0.2692,-0.2743,-0.2745,-0.2746,0,0,0,0,0,0,0,0,0,0,0,0,0,-0.2597,-0.2566,-0.2637,-0.2652,-0.2654,-0.2675,-0.2676,-0.2676,-0.2692,-0.2692,-0.2692,-0.2692,-0.2743,-0.2745,-0.2747,-0.2757,0,0,-0.2753,-0.2753,0,0,0,0,0,0,0,0,-0.2596,-0.26,-0.2649,-0.2651,-0.2653,-0.268,-0.267,-0.2705,-0.2692,-0.2675,-0.2692,-0.2692,-0.2725,-0.2728,-0.2733,-0.2759,-0.2761,-0.2753,-0.2754,-0.2755,-0.2755,0,0,0,0,0,0,0,-0.2593,-0.2598,-0.265,-0.265,-0.2652,-0.2653,-0.2657,-0.2676,-0.2698,-0.2677,-0.2678,-0.2685,-0.2726,-0.2731,-0.2734,-0.2762,-0.2753,-0.2754,-0.2756,-0.2756,-0.2758,-0.2757,0,0,0,0,0,0,-0.2593,-0.2596,-0.2649,-0.2652,-0.2626,-0.2654,-0.2659,-0.267,-0.2697,-0.2702,-0.2685,-0.2686,-0.2727,-0.2732,-0.2736,-0.2745,-0.2755,-0.2757,-0.2758,-0.276,-0.2758,-0.2757,0,0,0,0,0,0,-0.2591,-0.2597,-0.2648,-0.2626,-0.2633,-0.2655,-0.2667,-0.2671,-0.2682,-0.2704,-0.2709,-0.2694,-0.2727,-0.2733,-0.2746,-0.2747,-0.2757,-0.2759,-0.2761,-0.2759,-0.2758,-0.2766,0,0,0,0,0,0,-0.2589,-0.2597,-0.2603,-0.2626,-0.2634,-0.2664,-0.2668,-0.2672,-0.2687,-0.2689,-0.2714,-0.2718,-0.2728,-0.2743,-0.2748,-0.275,-0.2761,-0.2762,-0.276,-0.2758,-0.2767,-0.2764,-0.2762,0,0,0,0,0,-0.2586,-0.2596,-0.2603,-0.261,-0.2643,-0.2665,-0.2669,-0.2683,-0.2688,-0.2694,-0.2701,-0.2717,-0.2732,-0.2744,-0.275,-0.2753,-0.2763,-0.2761,-0.2758,-0.2768,-0.2765,-0.2762,0,0,0,0,0,0,-0.2572,-0.26,-0.2608,-0.2627,-0.2646,-0.2668,-0.2676,-0.2687,-0.2698,-0.27,-0.2716,-0.272,-0.2727,-0.2733,-0.2746,-0.2741,-0.2746,-0.2744,-0.2751,-0.2748,-0.2746,-0.2749,-0.2762,0,0,0,0,0,-0.2572,-0.2582,-0.2611,-0.2624,-0.2635,-0.2656,-0.2666,-0.2679,-0.2694,-0.2699,-0.2714,-0.2719,-0.272,-0.273,-0.2732,-0.2744,-0.2733,-0.2741,-0.2739,-0.2737,-0.274,-0.2717,-0.2714,-0.2749,-0.2749,-0.2749,0,0,-0.2569,-0.2586,-0.2592,-0.2621,-0.2636,-0.2655,-0.2662,-0.2682,-0.2694,-0.2704,-0.2718,-0.2717,-0.2718,-0.2721,-0.2725,-0.2731,-0.2718,-0.2734,-0.2733,-0.2737,-0.2715,-0.2711,-0.2709,-0.2747,-0.2747,-0.2747,0,0,-0.2567,-0.2585,-0.2594,-0.2613,-0.2639,-0.2654,-0.2662,-0.2687,-0.2694,-0.271,-0.2707,-0.2702,-0.2721,-0.2713,-0.2713,-0.2699,-0.2704,-0.2699,-0.2702,-0.268,-0.2678,-0.2676,-0.265,-0.2645,-0.2702,-0.2702,-0.2702,0,-0.2563,-0.2581,-0.2599,-0.2617,-0.2632,-0.2655,-0.2671,-0.2684,-0.2708,-0.2713,-0.2715,-0.2712,-0.2713,-0.2707,-0.2697,-0.2697,-0.2686,-0.2719,-0.268,-0.2677,-0.2675,-0.2649,-0.2644,-0.2702,-0.2702,-0.2702,-0.2702,0,-0.2569,-0.2587,-0.2595,-0.2622,-0.2642,-0.2658,-0.2684,-0.2699,-0.271,-0.272,-0.2719,-0.271,-0.2709,-0.27,-0.27,-0.2681,-0.2678,-0.2679,-0.2693,-0.2672,-0.2645,-0.264,-0.2703,-0.2703,-0.2703,-0.2703,0,0,-0.2541,-0.2589,-0.259,-0.2606,-0.2646,-0.2661,-0.2685,-0.2708,-0.2721,-0.2728,-0.2735,-0.2717,-0.2713,-0.2709,-0.2699,-0.2679,-0.2645,-0.2676,-0.2675,-0.2663,-0.2596,-0.2497,-0.2481,-0.2647,-0.2646,-0.2646,-0.2582,0,-0.2537,-0.2564,-0.2592,-0.2619,-0.2636,-0.2671,-0.2692,-0.2716,-0.2732,-0.2745,-0.2731,-0.2731,-0.2717,-0.2714,-0.2691,-0.2666,-0.2633,-0.2662,-0.2608,-0.2606,-0.253,-0.2472,-0.2312,-0.2233,-0.2577,-0.2576,-0.2575,0,-0.2523,-0.2547,-0.257,-0.262,-0.2631,-0.2652,-0.2689,-0.2713,-0.274,-0.2752,-0.2752,-0.275,-0.2727,-0.2713,-0.2654,-0.2678,-0.2633,-0.2604,-0.2601,-0.2503,-0.2496,-0.2309,-0.221,-0.2566,-0.2567,-0.2568,-0.2568,0,-0.2475,-0.2526,-0.2542,-0.2559,-0.262,-0.2637,-0.2668,-0.2707,-0.2725,-0.2753,-0.2765,-0.2751,-0.2738,-0.2692,-0.2632,-0.2648,-0.2559,-0.2573,-0.2435,-0.2428,-0.2275,-0.2256,-0.2509,-0.2509,-0.2509,-0.2509,-0.2509,0,-0.2447,-0.2458,-0.2523,-0.253,-0.2555,-0.2611,-0.2635,-0.267,-0.2714,-0.2722,-0.2759,-0.2748,-0.2731,-0.2685,-0.2633,-0.2506,-0.2553,-0.2415,-0.2395,-0.227,-0.2252,-0.2536,-0.254,-0.2507,-0.2507,-0.2508,-0.2508,0,-0.2378,-0.2423,-0.2446,-0.2511,-0.253,-0.2544,-0.2611,-0.2625,-0.2686,-0.2698,-0.2706,-0.2738,-0.2673,-0.2632,-0.2551,-0.2485,-0.2391,-0.233,-0.2181,-0.2143,-0.228,-0.2285,-0.2176,-0.2172,-0.2168,-0.2165,-0.2163,0,-0.234,-0.2344,-0.241,-0.2418,-0.2443,-0.2482,-0.25,-0.2586,-0.2603,-0.2669,-0.2659,-0.2638,-0.2562,-0.2424,-0.2311,-0.218,-0.2269,-0.1968,-0.1955,-0.2249,-0.2241,-0.2252,-0.2262,-0.1759,-0.1754,-0.1749,-0.1745,0,-0.2257,-0.2283,-0.2299,-0.2322,-0.2344,-0.2371,-0.241,-0.2423,-0.2509,-0.2516,-0.2496,-0.2447,-0.2338,-0.2123,-0.1981,-0.1894,-0.1982,-0.1868,-0.2196,-0.1869,-0.185,-0.1846,-0.187,-0.1704,-0.1708,-0.1711,-0.1714,-0.1715,-0.2177,-0.2169,-0.219,-0.2195,-0.2224,-0.2221,-0.2184,-0.2232,-0.2222,-0.2183,-0.2257,-0.2115,-0.2075,-0.175,-0.1628,-0.1543,-0.168,-0.161,-0.1627,-0.1648,-0.1612,-0.1587,-0.1385,-0.1387,-0.1389,-0.1391,-0.1392,0,-0.2055,-0.2053,-0.2057,-0.205,-0.2014,-0.2082,-0.2081,-0.2003,-0.192,-0.1924,-0.1857,-0.1614,-0.146,-0.1428,-0.1223,-0.1168,-0.1182,-0.1124,-0.1157,-0.1197,-0.1233,-0.1179,-0.0836,-0.0834,-0.0833,-0.0831,0,0,-0.1989,-0.1937,-0.1934,-0.1825,-0.1819,-0.1709,-0.1668,-0.158,-0.1536,-0.1391,-0.1316,-0.1382,-0.1391,-0.1122,-0.1049,-0.0912,-0.105,-0.0862,-0.1309,-0.1389,-0.1424,-0.1511,-0.1471,0,0,0,0,0]},{"header":{"parameterUnit":"m.s-1","parameterCategory":2,"la1":30.2991,"la2":30.254,"lo1":-89.0895,"lo2":-89.0444,"dy":0.0017,"dx":0.0017,"nx":28,"ny":28,"refTime":"2025-04-16T09:00:00:Z","depth":"2","parameterNumber":3,"parameterNumberName":"V-component_of_CURRENTS"},"data":[0,0,0,0,0,0,0,0,0,0,0,0,0,0,0,0,0,0,0,0,0,0,0,0,0,0,0,0,0,0,0,0,0,0,0,0,0,0,0,0,0,0,0,0,0,0,0,0,0,0,0,0,0,0,0,0,0,0,-0.0531,-0.053,0,-0.0471,-0.047,-0.0469,-0.0418,-0.0417,-0.0417,-0.0416,-0.0287,-0.0284,-0.0282,0,0,0,0,0,0,0,0,0,0,0,0,0,-0.0547,-0.0547,-0.0531,-0.053,-0.0529,-0.0471,-0.047,-0.0469,-0.0418,-0.0417,-0.0417,-0.0416,-0.0288,-0.0285,-0.0281,0,0,0,0,0,0,0,0,0,0,0,0,0,-0.0518,-0.0547,-0.0531,-0.0497,-0.0494,-0.0471,-0.047,-0.0469,-0.0418,-0.0417,-0.0416,-0.0416,-0.0289,-0.0285,-0.0281,-0.0269,0,0,-0.0267,-0.0265,0,0,0,0,0,0,0,0,-0.052,-0.0518,-0.0503,-0.05,-0.0495,-0.0451,-0.0428,-0.0399,-0.0418,-0.0446,-0.0416,-0.0415,-0.0337,-0.0328,-0.0319,-0.0263,-0.0258,-0.0267,-0.0264,-0.0262,-0.0261,0,0,0,0,0,0,0,-0.0522,-0.052,-0.0507,-0.0502,-0.0498,-0.0466,-0.0462,-0.0422,-0.0395,-0.0444,-0.044,-0.0434,-0.0334,-0.0324,-0.0315,-0.0256,-0.0267,-0.0263,-0.026,-0.0259,-0.0169,-0.0169,0,0,0,0,0,0,-0.0534,-0.0522,-0.0508,-0.0505,-0.0507,-0.0467,-0.0462,-0.0466,-0.0397,-0.0386,-0.0435,-0.0432,-0.0331,-0.0321,-0.0311,-0.0281,-0.0262,-0.0258,-0.0256,-0.0169,-0.0169,-0.0169,0,0,0,0,0,0,-0.0535,-0.0534,-0.0511,-0.0511,-0.0506,-0.0468,-0.0473,-0.0465,-0.0453,-0.0391,-0.0379,-0.0431,-0.033,-0.0317,-0.0285,-0.0276,-0.0256,-0.0252,-0.0168,-0.0169,-0.0169,-0.0228,0,0,0,0,0,0,-0.0536,-0.0535,-0.0542,-0.0513,-0.0507,-0.0503,-0.0473,-0.0465,-0.0451,-0.0447,-0.0383,-0.0371,-0.0329,-0.0292,-0.0281,-0.0269,-0.0249,-0.0168,-0.0169,-0.0169,-0.0226,-0.0231,-0.0235,0,0,0,0,0,-0.0537,-0.0552,-0.0543,-0.0541,-0.0518,-0.0504,-0.0498,-0.0466,-0.0452,-0.0452,-0.0414,-0.0373,-0.0287,-0.029,-0.0276,-0.0262,-0.0168,-0.0168,-0.0169,-0.0224,-0.023,-0.0234,0,0,0,0,0,0,-0.0561,-0.0548,-0.0537,-0.0547,-0.0529,-0.0495,-0.0492,-0.0473,-0.0444,-0.0439,-0.0381,-0.0366,-0.0334,-0.0296,-0.03,-0.0239,-0.0218,-0.0216,-0.0265,-0.0269,-0.0274,-0.0278,-0.0245,0,0,0,0,0,-0.0572,-0.058,-0.0558,-0.0565,-0.0559,-0.0528,-0.0518,-0.0499,-0.047,-0.0457,-0.0413,-0.0367,-0.0326,-0.0298,-0.026,-0.0229,-0.0182,-0.021,-0.0215,-0.0218,-0.0213,-0.015,-0.0147,-0.0171,-0.0171,-0.0171,0,0,-0.0582,-0.0576,-0.058,-0.0571,-0.0554,-0.0553,-0.052,-0.0512,-0.0503,-0.0446,-0.0423,-0.0384,-0.0325,-0.0291,-0.0272,-0.0256,-0.0188,-0.0219,-0.0223,-0.0215,-0.015,-0.0147,-0.0145,-0.0172,-0.0172,-0.0172,0,0,-0.0611,-0.0604,-0.0621,-0.0611,-0.0594,-0.0574,-0.0575,-0.0546,-0.0525,-0.0505,-0.0459,-0.0417,-0.0361,-0.0311,-0.028,-0.0285,-0.022,-0.0272,-0.0286,-0.0225,-0.0222,-0.0219,-0.0162,-0.0153,-0.0267,-0.0267,-0.0267,0,-0.0623,-0.0642,-0.0621,-0.0632,-0.0627,-0.0588,-0.0599,-0.0574,-0.0537,-0.0517,-0.0506,-0.0415,-0.0367,-0.0309,-0.0311,-0.0291,-0.0251,-0.0273,-0.023,-0.0226,-0.0222,-0.0164,-0.0153,-0.027,-0.0269,-0.0269,-0.0269,0,-0.0661,-0.0674,-0.0682,-0.0684,-0.0674,-0.0678,-0.0644,-0.0629,-0.0601,-0.0566,-0.0514,-0.0453,-0.0394,-0.0371,-0.0341,-0.0286,-0.0265,-0.025,-0.0218,-0.0223,-0.0162,-0.015,-0.0274,-0.0273,-0.0272,-0.0271,0,0,-0.0696,-0.0709,-0.0711,-0.0723,-0.0703,-0.0702,-0.0686,-0.0656,-0.0639,-0.059,-0.0556,-0.0484,-0.0443,-0.0405,-0.0353,-0.0295,-0.0234,-0.0265,-0.026,-0.0209,-0.0099,-0.0069,-0.0053,-0.0213,-0.0211,-0.021,-0.0069,0,-0.0732,-0.0773,-0.076,-0.0786,-0.0803,-0.0763,-0.0751,-0.0714,-0.0669,-0.0626,-0.0543,-0.0496,-0.0456,-0.0429,-0.0364,-0.0266,-0.0205,-0.0273,-0.0099,-0.0094,-0.0068,-0.0039,-0.0062,0.0063,-0.0057,-0.0055,-0.0054,0,-0.0773,-0.0796,-0.0837,-0.0844,-0.0845,-0.0849,-0.0819,-0.0802,-0.0723,-0.0684,-0.0613,-0.0548,-0.0451,-0.0426,-0.0251,-0.0298,-0.0206,-0.0129,-0.0121,-0.0062,-0.0042,0.0051,0.0089,-0.0033,-0.0035,-0.0037,-0.0038,0,-0.0819,-0.0847,-0.0884,-0.0888,-0.0888,-0.089,-0.0881,-0.0821,-0.0801,-0.0718,-0.0688,-0.0566,-0.0499,-0.0373,-0.0214,-0.0232,-0.0019,-0.0021,0.0096,0.0099,0.0132,0.0135,0.0101,0.0101,0.0101,0.0101,0.01,0,-0.0866,-0.0894,-0.0913,-0.0936,-0.0971,-0.0943,-0.0951,-0.0919,-0.0858,-0.0825,-0.0724,-0.066,-0.0482,-0.0341,-0.0211,-0.0011,-0.0011,0.0108,0.0144,0.0109,0.0108,0.0063,0.0057,0.0106,0.0105,0.0104,0.0103,0,-0.0914,-0.0925,-0.0973,-0.0991,-0.0999,-0.1025,-0.1017,-0.1012,-0.0948,-0.09,-0.0876,-0.0712,-0.052,-0.0336,-0.0105,0.0001,0.0178,0.0246,0.0193,0.022,0.0252,0.0241,0.0389,0.0392,0.0394,0.0395,0.0397,0,-0.0942,-0.0974,-0.1026,-0.106,-0.1075,-0.1102,-0.1116,-0.1068,-0.1051,-0.0923,-0.0898,-0.0704,-0.0549,-0.0199,0.0026,0.0271,0.026,0.0381,0.0344,0.0265,0.0285,0.027,0.0257,0.0364,0.0365,0.0366,0.0367,0,-0.0993,-0.1013,-0.1055,-0.1132,-0.1169,-0.12,-0.1208,-0.1206,-0.1128,-0.1054,-0.0907,-0.077,-0.0432,-0.0146,0.0164,0.0298,0.0335,0.0406,0.0365,0.0284,0.025,0.0266,0.0252,0.0374,0.0374,0.0373,0.0373,0.0372,-0.1023,-0.1072,-0.1131,-0.1198,-0.1244,-0.1278,-0.1285,-0.1253,-0.1199,-0.105,-0.092,-0.0662,-0.0416,0.0053,0.0257,0.045,0.0435,0.0477,0.0471,0.0465,0.0427,0.0397,0.0541,0.0542,0.0542,0.0542,0.0542,0,-0.1058,-0.1115,-0.1189,-0.1264,-0.1314,-0.1323,-0.1325,-0.1281,-0.1192,-0.102,-0.0839,-0.0513,-0.0201,0.0064,0.0373,0.0535,0.051,0.0562,0.049,0.0482,0.0475,0.0433,0.0552,0.0553,0.0553,0.0554,0,0,-0.108,-0.1158,-0.1201,-0.1297,-0.1344,-0.1369,-0.1359,-0.1253,-0.1113,-0.0906,-0.0697,-0.0466,-0.0158,0.0058,0.0258,0.0422,0.0408,0.0437,0.0411,0.0294,0.0285,0.041,0.0336,0,0,0,0,0]}],[{"header":{"parameterUnit":"m.s-1","parameterCategory":2,"la1":30.2991,"la2":30.254,"lo1":-89.0895,"lo2":-89.0444,"dy":0.0017,"dx":0.0017,"nx":28,"ny":28,"refTime":"2025-04-16T09:00:00:Z","depth":"4","parameterNumber":2,"parameterNumberName":"U-component_of_CURRENTS"},"data":[0,0,0,0,0,0,0,0,0,0,0,0,0,0,0,0,0,0,0,0,0,0,0,0,0,0,0,0,0,0,0,0,0,0,0,0,0,0,0,0,0,0,0,0,0,0,0,0,0,0,0,0,0,0,0,0,0,0,-0.183,-0.183,0,-0.1901,-0.1901,-0.1902,-0.197,-0.1971,-0.1971,-0.1972,-0.2077,-0.2079,-0.2081,0,0,0,0,0,0,0,0,0,0,0,0,0,-0.1745,-0.1746,-0.183,-0.1831,-0.1832,-0.19,-0.1901,-0.1902,-0.1969,-0.1971,-0.1972,-0.1973,-0.2077,-0.2079,-0.2081,0,0,0,0,0,0,0,0,0,0,0,0,0,-0.1794,-0.1746,-0.1829,-0.1874,-0.1879,-0.19,-0.1901,-0.1902,-0.1969,-0.1971,-0.1972,-0.1973,-0.2076,-0.2079,-0.2082,-0.2071,0,0,-0.209,-0.2092,0,0,0,0,0,0,0,0,-0.1791,-0.1797,-0.1867,-0.1871,-0.1877,-0.1929,-0.191,-0.1961,-0.1969,-0.1934,-0.1972,-0.1974,-0.203,-0.2037,-0.2045,-0.2076,-0.208,-0.2091,-0.2092,-0.2094,-0.2094,0,0,0,0,0,0,0,-0.1788,-0.1794,-0.1857,-0.1868,-0.1874,-0.1888,-0.1897,-0.192,-0.1973,-0.1937,-0.1942,-0.1951,-0.2034,-0.2042,-0.2048,-0.2082,-0.2091,-0.2093,-0.2095,-0.2096,-0.2161,-0.2161,0,0,0,0,0,0,-0.178,-0.1791,-0.1854,-0.1859,-0.1838,-0.1889,-0.1898,-0.191,-0.1972,-0.1983,-0.195,-0.1954,-0.2037,-0.2045,-0.2052,-0.2114,-0.2094,-0.2096,-0.2098,-0.2161,-0.2161,-0.2161,0,0,0,0,0,0,-0.1778,-0.1785,-0.1852,-0.1827,-0.1837,-0.1889,-0.1901,-0.191,-0.1955,-0.1982,-0.1994,-0.1989,-0.2038,-0.2048,-0.2096,-0.2116,-0.2098,-0.21,-0.2161,-0.2161,-0.2161,-0.2192,0,0,0,0,0,0,-0.1775,-0.1784,-0.1804,-0.1827,-0.1838,-0.1884,-0.19,-0.1911,-0.1956,-0.1964,-0.2019,-0.2028,-0.204,-0.2092,-0.2099,-0.212,-0.2102,-0.2161,-0.2161,-0.2161,-0.2191,-0.2193,-0.2194,0,0,0,0,0,-0.1772,-0.1788,-0.1805,-0.1814,-0.186,-0.1885,-0.1892,-0.1932,-0.1957,-0.1978,-0.2014,-0.2028,-0.2096,-0.2094,-0.2103,-0.2125,-0.2161,-0.2161,-0.2161,-0.219,-0.2192,-0.2194,0,0,0,0,0,0,-0.1767,-0.1797,-0.1816,-0.1844,-0.1872,-0.1897,-0.1924,-0.1949,-0.1992,-0.2011,-0.2037,-0.2048,-0.2092,-0.21,-0.2097,-0.2139,-0.2127,-0.2129,-0.2146,-0.2149,-0.2151,-0.2151,-0.2105,0,0,0,0,0,-0.1772,-0.1794,-0.1823,-0.1849,-0.1865,-0.19,-0.1923,-0.1949,-0.1983,-0.2006,-0.2042,-0.2072,-0.209,-0.2116,-0.2133,-0.2166,-0.2151,-0.218,-0.2182,-0.2183,-0.2186,-0.2173,-0.2175,-0.2161,-0.2161,-0.2161,0,0,-0.1778,-0.1798,-0.1813,-0.1849,-0.1877,-0.1905,-0.1919,-0.196,-0.199,-0.2009,-0.2071,-0.2086,-0.2099,-0.2131,-0.2151,-0.2149,-0.2177,-0.2183,-0.2185,-0.2187,-0.2174,-0.2175,-0.2176,-0.2161,-0.2161,-0.2161,0,0,-0.1788,-0.182,-0.184,-0.1865,-0.1909,-0.1928,-0.1947,-0.199,-0.2021,-0.2069,-0.2082,-0.2109,-0.2156,-0.216,-0.2167,-0.2189,-0.2185,-0.2198,-0.2219,-0.2207,-0.2208,-0.2209,-0.2184,-0.2183,-0.2204,-0.2204,-0.2204,0,-0.1799,-0.1826,-0.1851,-0.1876,-0.1903,-0.1942,-0.1972,-0.2002,-0.2058,-0.2079,-0.2098,-0.2148,-0.2164,-0.2184,-0.2192,-0.2195,-0.2185,-0.2214,-0.221,-0.2211,-0.2211,-0.2185,-0.2183,-0.2205,-0.2205,-0.2205,-0.2205,0,-0.1814,-0.1851,-0.1866,-0.1911,-0.1941,-0.1974,-0.2013,-0.2055,-0.2097,-0.2122,-0.2167,-0.2181,-0.2209,-0.2214,-0.2216,-0.2227,-0.2216,-0.2212,-0.2207,-0.2215,-0.2187,-0.2184,-0.2207,-0.2207,-0.2206,-0.2206,0,0,-0.1794,-0.1863,-0.1873,-0.1903,-0.1964,-0.1986,-0.204,-0.2086,-0.2122,-0.217,-0.2208,-0.2232,-0.2243,-0.225,-0.2251,-0.2245,-0.2236,-0.2239,-0.2237,-0.2218,-0.2204,-0.2056,-0.2038,-0.2238,-0.2238,-0.2238,-0.2181,0,-0.1802,-0.1851,-0.1887,-0.1944,-0.1972,-0.2026,-0.2068,-0.2118,-0.2161,-0.2206,-0.2223,-0.2257,-0.2255,-0.2273,-0.2267,-0.2249,-0.2232,-0.2252,-0.2196,-0.2193,-0.2064,-0.2031,-0.2238,-0.2179,-0.2178,-0.2177,-0.2177,0,-0.1796,-0.1833,-0.1887,-0.1961,-0.198,-0.2023,-0.2096,-0.214,-0.22,-0.2234,-0.227,-0.2287,-0.2297,-0.229,-0.2261,-0.2278,-0.2244,-0.222,-0.2218,-0.2066,-0.2039,-0.217,-0.2172,-0.2172,-0.2173,-0.2173,-0.2173,0,-0.1749,-0.183,-0.1874,-0.1901,-0.1988,-0.2031,-0.2082,-0.2151,-0.2186,-0.2253,-0.2279,-0.2302,-0.2311,-0.2287,-0.2244,-0.2261,-0.2193,-0.2205,-0.2033,-0.2023,-0.2165,-0.2165,-0.2166,-0.2166,-0.2166,-0.2166,-0.2166,0,-0.1719,-0.176,-0.1864,-0.1886,-0.1943,-0.2016,-0.2077,-0.2132,-0.2201,-0.2217,-0.2289,-0.2282,-0.2311,-0.2279,-0.2244,-0.2113,-0.2188,-0.2018,-0.199,-0.2178,-0.2179,-0.2163,-0.2163,-0.2164,-0.2165,-0.2165,-0.2165,0,-0.165,-0.1722,-0.1779,-0.1885,-0.1922,-0.1963,-0.2067,-0.2092,-0.2181,-0.2202,-0.2222,-0.2268,-0.2217,-0.2213,-0.2159,-0.2082,-0.1995,-0.1929,-0.2117,-0.2104,-0.1838,-0.1841,-0.1734,-0.1728,-0.1723,-0.1719,-0.1716,0,-0.1613,-0.1637,-0.176,-0.1789,-0.1842,-0.1919,-0.1955,-0.2065,-0.208,-0.2154,-0.2135,-0.2139,-0.214,-0.1936,-0.1965,-0.1872,-0.1847,-0.1798,-0.1826,-0.1807,-0.1791,-0.1802,-0.1811,-0.1708,-0.1706,-0.1705,-0.1704,0,-0.1533,-0.1594,-0.1636,-0.1699,-0.1752,-0.1797,-0.1859,-0.1856,-0.1948,-0.2056,-0.1971,-0.1926,-0.1861,-0.1811,-0.1745,-0.1687,-0.1833,-0.1745,-0.1756,-0.1783,-0.1774,-0.1765,-0.178,-0.1686,-0.1689,-0.169,-0.1691,0,-0.1469,-0.1478,-0.1539,-0.1573,-0.1638,-0.1631,-0.169,-0.1683,-0.1714,-0.1802,-0.1762,-0.1767,-0.1822,-0.1711,-0.1651,-0.158,-0.1562,-0.1513,-0.1536,-0.1556,-0.1523,-0.1488,-0.1266,0,0,0,0,0,-0.1391,-0.1375,-0.1401,-0.1421,-0.1478,-0.1506,-0.1593,-0.165,-0.1745,-0.1629,-0.1689,-0.1616,-0.1525,-0.154,-0.1425,-0.1579,-0.1577,-0.1441,-0.1536,-0.159,-0.161,-0.1589,0,0,0,0,0,0,-0.1334,-0.1354,-0.1348,-0.1277,-0.1258,-0.1293,-0.1338,-0.1408,-0.1357,-0.1463,-0.1417,-0.1505,-0.1442,-0.1545,-0.1382,-0.1386,-0.1409,-0.1465,-0.146,-0.1579,-0.1597,-0.1613,-0.1599,0,0,0,0,0]},{"header":{"parameterUnit":"m.s-1","parameterCategory":2,"la1":30.2991,"la2":30.254,"lo1":-89.0895,"lo2":-89.0444,"dy":0.0017,"dx":0.0017,"nx":28,"ny":28,"refTime":"2025-04-16T09:00:00:Z","depth":"4","parameterNumber":3,"parameterNumberName":"V-component_of_CURRENTS"},"data":[0,0,0,0,0,0,0,0,0,0,0,0,0,0,0,0,0,0,0,0,0,0,0,0,0,0,0,0,0,0,0,0,0,0,0,0,0,0,0,0,0,0,0,0,0,0,0,0,0,0,0,0,0,0,0,0,0,0,-0.042,-0.042,0,-0.0393,-0.0392,-0.0392,-0.0364,-0.0363,-0.0363,-0.0363,-0.0285,-0.0283,-0.0281,0,0,0,0,0,0,0,0,0,0,0,0,0,-0.0407,-0.0408,-0.042,-0.042,-0.042,-0.0393,-0.0392,-0.0392,-0.0364,-0.0363,-0.0363,-0.0362,-0.0285,-0.0283,-0.0281,0,0,0,0,0,0,0,0,0,0,0,0,0,-0.0399,-0.0408,-0.042,-0.0403,-0.0401,-0.0393,-0.0392,-0.0392,-0.0364,-0.0363,-0.0363,-0.0362,-0.0286,-0.0283,-0.0281,-0.0275,0,0,-0.0273,-0.0272,0,0,0,0,0,0,0,0,-0.04,-0.04,-0.0406,-0.0404,-0.0402,-0.0381,-0.0359,-0.035,-0.0364,-0.0377,-0.0363,-0.0362,-0.0313,-0.0308,-0.0304,-0.0271,-0.0268,-0.0273,-0.0271,-0.027,-0.0269,0,0,0,0,0,0,0,-0.0401,-0.0401,-0.0409,-0.0405,-0.0403,-0.0382,-0.0381,-0.0357,-0.0347,-0.0376,-0.0374,-0.0372,-0.0312,-0.0307,-0.0302,-0.0267,-0.0273,-0.027,-0.0269,-0.0268,-0.0223,-0.0224,0,0,0,0,0,0,-0.0408,-0.0402,-0.041,-0.0408,-0.04,-0.0383,-0.0381,-0.0388,-0.0348,-0.0342,-0.0372,-0.0371,-0.0312,-0.0305,-0.0299,-0.0283,-0.027,-0.0267,-0.0266,-0.0223,-0.0223,-0.0224,0,0,0,0,0,0,-0.0408,-0.0409,-0.0411,-0.0404,-0.0403,-0.0384,-0.0392,-0.0388,-0.0387,-0.0346,-0.0339,-0.0376,-0.0311,-0.0303,-0.0291,-0.028,-0.0266,-0.0264,-0.0222,-0.0223,-0.0224,-0.0254,0,0,0,0,0,0,-0.0408,-0.041,-0.042,-0.0405,-0.0403,-0.0414,-0.0392,-0.0388,-0.0386,-0.0384,-0.0347,-0.0339,-0.031,-0.0295,-0.0288,-0.0276,-0.0262,-0.0222,-0.0223,-0.0223,-0.0253,-0.0256,-0.0258,0,0,0,0,0,-0.0408,-0.0425,-0.0421,-0.0422,-0.0418,-0.0414,-0.0412,-0.0396,-0.0387,-0.0392,-0.0371,-0.034,-0.0294,-0.0294,-0.0286,-0.0272,-0.0222,-0.0223,-0.0223,-0.0252,-0.0255,-0.0258,0,0,0,0,0,0,-0.0425,-0.0423,-0.0419,-0.0435,-0.0428,-0.041,-0.0414,-0.0403,-0.0392,-0.039,-0.0351,-0.0342,-0.0325,-0.0302,-0.0303,-0.0263,-0.025,-0.025,-0.0275,-0.0278,-0.0281,-0.0272,-0.026,0,0,0,0,0,-0.0435,-0.0448,-0.0438,-0.0452,-0.0451,-0.0435,-0.0433,-0.0423,-0.0409,-0.0404,-0.0378,-0.035,-0.0322,-0.0305,-0.0283,-0.0265,-0.0228,-0.025,-0.0253,-0.0255,-0.0244,-0.0185,-0.0181,-0.0227,-0.0227,-0.0227,0,0,-0.0445,-0.0446,-0.0454,-0.0456,-0.045,-0.0451,-0.0433,-0.0436,-0.043,-0.0396,-0.0386,-0.0363,-0.0323,-0.0302,-0.0291,-0.028,-0.0227,-0.0256,-0.0258,-0.0246,-0.0185,-0.0181,-0.0176,-0.0227,-0.0227,-0.0227,0,0,-0.0468,-0.0475,-0.049,-0.0487,-0.0484,-0.0473,-0.0477,-0.0464,-0.0452,-0.0446,-0.0414,-0.0385,-0.0358,-0.0314,-0.029,-0.0296,-0.025,-0.0295,-0.0292,-0.0236,-0.0231,-0.0226,-0.0189,-0.0181,-0.0289,-0.0289,-0.0289,0,-0.048,-0.0497,-0.0493,-0.0502,-0.0501,-0.0484,-0.0492,-0.0479,-0.0463,-0.0448,-0.0449,-0.0387,-0.0355,-0.0302,-0.0304,-0.0297,-0.027,-0.0282,-0.0238,-0.0232,-0.0226,-0.019,-0.018,-0.0291,-0.0291,-0.0291,-0.029,0,-0.0505,-0.052,-0.0529,-0.0534,-0.0532,-0.054,-0.052,-0.0516,-0.0504,-0.048,-0.0444,-0.0402,-0.0359,-0.0344,-0.0324,-0.0268,-0.0265,-0.0253,-0.0226,-0.0223,-0.0186,-0.0175,-0.0293,-0.0293,-0.0292,-0.0292,0,0,-0.0528,-0.0545,-0.0549,-0.0558,-0.0551,-0.0555,-0.0544,-0.0524,-0.0514,-0.0485,-0.0458,-0.0401,-0.0374,-0.0345,-0.0309,-0.0254,-0.0198,-0.0242,-0.0238,-0.02,-0.0088,-0.0109,-0.0099,-0.0181,-0.0179,-0.0177,-0.0083,0,-0.0549,-0.0579,-0.0575,-0.0596,-0.0608,-0.0588,-0.0581,-0.0558,-0.0533,-0.0506,-0.0438,-0.0409,-0.0374,-0.0359,-0.0295,-0.0226,-0.0169,-0.0225,-0.01,-0.0096,-0.0109,-0.0086,-0.0171,-0.0075,-0.0072,-0.007,-0.0069,0,-0.0571,-0.059,-0.062,-0.0631,-0.0634,-0.0643,-0.0629,-0.0619,-0.0565,-0.0543,-0.0484,-0.0441,-0.0354,-0.0337,-0.0188,-0.0231,-0.0159,-0.0102,-0.0097,-0.0092,-0.0096,-0.0073,-0.0049,-0.0051,-0.0052,-0.0053,-0.0055,0,-0.0592,-0.0618,-0.0647,-0.0652,-0.0661,-0.0669,-0.067,-0.0634,-0.0626,-0.0567,-0.0555,-0.0445,-0.0401,-0.0287,-0.0172,-0.0179,-0.0017,-0.0011,0.0044,0.0042,0.0046,0.004,0.0103,0.0102,0.0102,0.0102,0.0102,0,-0.061,-0.0635,-0.0668,-0.0686,-0.0722,-0.0709,-0.0729,-0.0709,-0.0676,-0.0663,-0.058,-0.0542,-0.0387,-0.0283,-0.0172,-0.0034,-0.0011,0.0056,0.0075,0.0026,0.0017,0.0053,0.0046,0.0105,0.0105,0.0104,0.0103,0,-0.0627,-0.0647,-0.069,-0.0722,-0.0738,-0.0767,-0.079,-0.0796,-0.0758,-0.0739,-0.0724,-0.0604,-0.0465,-0.0314,-0.0127,-0.0045,0.0091,0.0134,0.0061,0.0072,0.0113,0.0103,0.0211,0.0212,0.0212,0.0212,0.0212,0,-0.0635,-0.0662,-0.0731,-0.0771,-0.0794,-0.0837,-0.0864,-0.0845,-0.0842,-0.0774,-0.076,-0.0632,-0.0539,-0.028,-0.0129,0.0084,0.0111,0.0172,0.0162,0.0121,0.0129,0.0118,0.0108,0.0213,0.0213,0.0213,0.0213,0,-0.0653,-0.0689,-0.0729,-0.0817,-0.0869,-0.0915,-0.0945,-0.0946,-0.091,-0.0883,-0.077,-0.0634,-0.0476,-0.0277,-0.0116,0.0035,0.0129,0.0176,0.0176,0.0167,0.0124,0.0129,0.0119,0.0214,0.0213,0.0213,0.0213,0,-0.0671,-0.0713,-0.078,-0.0849,-0.0923,-0.0966,-0.098,-0.0957,-0.0941,-0.0852,-0.0816,-0.0638,-0.0526,-0.0302,-0.0154,-0.0009,0.0029,0.0069,0.0076,0.0077,0.0004,-0.0072,-0.0014,0,0,0,0,0,-0.068,-0.0731,-0.0805,-0.0882,-0.0954,-0.0988,-0.1018,-0.1014,-0.0981,-0.0903,-0.0851,-0.0698,-0.0456,-0.0346,-0.02,-0.0167,0.0034,0.0005,0.0078,0.0218,0.0217,0.0153,0,0,0,0,0,0,-0.0691,-0.0764,-0.0803,-0.089,-0.0943,-0.1009,-0.1027,-0.1006,-0.0946,-0.0892,-0.0753,-0.0674,-0.0433,-0.0532,-0.0198,-0.0155,-0.0093,0.0123,0.0126,0.0219,0.0218,0.0217,0.0151,0,0,0,0,0]}]]